Preview of NWS' New Version of Forecast
This preview is not operational and should not be used for support decisions.

Regional Weather Roundup (RWR)

Issued by National Weather Service (NWS)

                            
000
ASUS45 KTFX 211010
RWRMT 
MONTANA REGIONAL WEATHER ROUNDUP
NATIONAL WEATHER SERVICE GREAT FALLS MT
300 AM MST MON JAN 21 2019

NOTE: "FAIR" INDICATES FEW OR NO CLOUDS BELOW 12000 FEET WITH NO
SIGNIFICANT WEATHER AND/OR OBSTRUCTIONS TO VISIBILITY.

MTZ001>007-043-211100-
WEST OF THE DIVIDE
  
CITY           SKY/WX    TMP DP  RH WIND       PRES   REMARKS
KALISPELL      LGT SNOW  29  26  89 CALM      29.74R FOG              
MISSOULA       CLOUDY    32  29  88 NW5       29.71R                  
BUTTE          CLOUDY    30  27  88 N5        29.57S                  
MULLAN PASS    CLOUDY    23  18  81 VRB6      29.67R HAZE    WCI  16  
ANACONDA         N/A     30  28  93 NE7       29.62R WCI  23          
DEER LODGE       N/A     30  27  86 NW22G31   29.63S WCI  17          
LIBBY            N/A    N/A N/A N/A CALM        N/A                   
RONAN            N/A     30  30 100 S5        29.74R                  
$$

MTZ008-052>055-211100-
SOUTHWEST MONTANA
  
CITY           SKY/WX    TMP DP  RH WIND       PRES   REMARKS
BOZEMAN        FLURRIES  34  31  88 N7        29.56S WCI  28          
DILLON         CLOUDY    32  30  92 SW8       29.56R WCI  25          
ENNIS          CLOUDY    34  32  93 CALM      29.58R                  
W YELLOWSTONE  LGT SNOW  30  30 100 CALM      29.53F VSB 1            
THREE FORKS      N/A     33  31  93 CALM      29.62R                  
TWIN BRIDGES     N/A     34  28  79 S3        29.61S                  
$$

MTZ009-010-012-014-046-048-049-054-211100-
EAST SLOPES AND CENTRAL MONTANA
  
CITY           SKY/WX    TMP DP  RH WIND       PRES   REMARKS
CUT BANK       SNOW      27  26  96 N17       29.67R VSB 1/2 WCI  14  
GREAT FALLS    CLOUDY    27  27 100 NW3       29.64R                  
HELENA         CLOUDY    31  29  92 CALM      29.61R                  
AUGUSTA        FLURRIES  25 N/A N/A N9        29.63R WCI  15          
BOWMANS CRNR   FLURRIES  25  24  99 N5        29.62R                  
CHOTEAU          N/A     27  27 100 N7        29.65R FOG     WCI  19  
FAIRFIELD      FLURRIES  26  24  93 NW7       29.64R WCI  18          
POWER          FLURRIES  24  24  98 NW10      29.64R WCI  14          
RAYNESFORD     FLURRIES  29  30 100 W6        29.62R WCI  23          
WHITE SULPHUR    N/A     32  28  86 N3        29.56R                  
$$

MTZ011-013-016-021-045-047-050-051-211100-
NORTH CENTRAL MONTANA
  
CITY           SKY/WX    TMP DP  RH WIND       PRES   REMARKS
HAVRE          LGT SNOW  19  17  92 NE15      29.69S FOG     WCI   5  
LEWISTOWN      LGT SNOW  29  28  96 SE5       29.58S FOG              
N BAR RANCH    CLOUDY    28  27  93 CALM      29.59S FOG              
CHINOOK          N/A     19  18  93 E3        29.73R                  
GRASS RANGE    LGT SNOW  29  29 100 CALM      29.56S FOG              
JUDITH GAP     SNOWSHWR  28  27  97 N13       29.57R FOG     WCI  17  
ROY            SNOWSHWR  28  26  94 E9        29.59S VSB 3/8 WCI  19  
STANFORD       LGT SNOW  28  28  99 NW12      29.58R FOG     WCI  18  
WINIFRED       FLURRIES  28  29 100 E15       29.59R WCI  16          
$$

MTZ017>020-022>027-061-062-211100-
NORTHEAST MONTANA
  
CITY           SKY/WX    TMP DP  RH WIND       PRES   REMARKS
GLASGOW        LGT SNOW  19  15  84 E7        29.72S FOG     WCI  10  
GLENDIVE       LGT SNOW  17  14  88 NE13      29.70F FOG     WCI   4  
JORDAN           N/A     23  20  88 NE10      29.66R WCI  12          
MALTA          CLOUDY    18  16  93 NE9       29.72S WCI   6          
SIDNEY         LGT SNOW  15  11  83 E6        29.78F FOG     WCI   6  
WOLF POINT     CLOUDY    14  10  84 NE13      29.77F WCI   0          
POPLAR           N/A     12   9  85 NE8       29.78F WCI   1          
SCOBEY           N/A     10   2  70 CALM      29.75F                  
$$

MTZ028>42-056>058-211100-
SOUTHCENTRAL AND SOUTHEAST MONTANA
  
CITY           SKY/WX    TMP DP  RH WIND       PRES   REMARKS
BAKER          LGT SNOW  11   9  92 SE21G28   29.64F FOG     WCI  -8  
BILLINGS       CLOUDY    30  26  85 N6        29.56S WCI  24          
LIVINGSTON     LGT SNOW  30  30 100 E8        29.53S FOG     WCI  22  
MILES CITY     FAIR      22  21  96 NE15      29.62S WCI   9          
BIG TIMBER     CLOUDY    27  27 100 NE8       29.57S WCI  18          
FORSYTH          N/A     27  25  93 NE3       29.62R                  
HARLOWTON      FLURRIES  27  26  96 CALM      29.57R                  
LAUREL           N/A     30  27  86 NW9       29.58  WCI  22          
$$

REGIONAL REPORTS...DAKOTAS
  
CITY           SKY/WX    TMP DP  RH WIND       PRES   REMARKS
WILLISTON      MOCLDY    11   4  73 SE7       29.81S WCI   0          
MINOT          CLOUDY     7   1  76 SE12      29.90F WCI  -8          
DICKINSON      LGT SNOW  10   5  80 SE18      29.72F WCI  -8          
BEACH          LGT SNOW  12  10  92 SE13      29.71S WCI  -3          
CROSBY         CLOUDY     7   7 100 E5        29.83F                  
TIOGA          CLOUDY     3   3 100 SE8       29.81F WCI -10          
WATFORD CITY   CLOUDY    10   7  85 SE10      29.79F WCI  -3          
BISMARCK       LGT SNOW   8   5  87 SE14      29.92F FOG     WCI  -8  
GRAND FORKS    CLOUDY     3  -6  66 S21G30    30.19F WCI -18          
FARGO          FAIR       3  -7  63 SE23G35   30.21F WCI -19          
BUFFALO SD       N/A     12   8  84 E6        29.66R WCI   3          
RAPID CITY     FOG       19  17  92 N3        29.61F VSB 1/2          
$$

REGIONAL REPORTS...WYOMING/IDAHO/WASHINGTON
  
CITY           SKY/WX    TMP DP  RH WIND       PRES   REMARKS
GILLETTE       FAIR      36  26  67 NE3       29.54F                  
SHERIDAN       FAIR      22  21  96 CALM      29.54F                  
BUFFALO WY     FAIR      32  22  66 NW7       29.50F WCI  26          
CODY           FAIR      34  24  67 S9        29.51F WCI  27          
YELLOWSTONE LA   N/A     27  25  92 CALM      29.57F                  
IDAHO FALLS    LGT SNOW  32  30  92 S15       29.59F FOG     WCI  22  
SALMON         MIX PCPN  33  31  92 SW8       29.66R WCI  26          
BOISE          FAIR      33  26  75 NW12      29.74R WCI  24          
SPOKANE        MOCLDY    29  26  89 SW7       29.84R WCI  22          
$$

REGIONAL REPORTS...ALBERTA
  
CITY           SKY/WX    TMP DP  RH WIND       PRES   REMARKS
CALGARY        MOCLDY    23   9  54 N7        29.74R WCI  15          
EDMONTON       PTCLDY    19  19 100 W8        29.75R WCI   9          
FORT MCMURRAY  FLURRIES   7   3  85 NW6       29.83  WCI  -3          
HIGH LEVEL     CLEAR     -9 -15  77 CALM      29.90R                  
LETHBRIDGE     CLOUDY    23  16  74 W10       29.72R WCI  12          
LLOYDMINSTER   CLOUDY    16   9  73 W10       29.71R WCI   3          
MEDICINE HAT   CLOUDY    18  14  86 CALM      29.73R                  
PEACE RIVER    FLURRIES   9   5  85 E5        29.85R                  
PINCHER CREEK  CLOUDY    25  16  68 W9        29.71R WCI  15          
$$

REGIONAL REPORTS...SASKATCHEWAN
  
CITY           SKY/WX    TMP DP  RH WIND       PRES   REMARKS
ESTEVAN        FLURRIES   7   3  85 SE9       29.84F WCI  -7          
PRINCE ALBERT  FLURRIES   3   0  85 S5        29.78F                  
REGINA         CRYSTALS   5   1  85 SE13      29.81S WCI -12          
SASKATOON      LGT SNOW   9   5  85 S9        29.78S FOG     WCI  -5  
SWIFT CURRENT  CLOUDY    18  12  79 SW12      29.69R WCI   5          
$$